Volver al catálogo

STARLINK-4214

ActivoComunicacionesVLEO
NORAD 52877·PAYLOAD·🇺🇸 United States

Lanzado Jun 17, 2022 desde Cape Canaveral Space Force Station

Loading…

Próximos Pases (próximas 24 horas)

TLE

ActualizadoSource: CelesTrak SupGP

Época: Sep 14, 2026, 21:16 UTC

1 52877C 22062AZ  26257.88659722  .00038072  00000+0  11248-2 0  2574
2 52877  53.1573 232.1588 0001224  98.8353 186.0338 15.34371845    10

Sigue STARLINK-4214 en tiempo real con AllMySat

Download on the App Store